When you browse on this site, cookies collect data to enhance your experience and personalize the content and advertising you see.
Visit our Privacy Policy to learn more. By continuing to use the site, you agree to this use of cookies and data.
  • Em Portugal
  • Lista de países
  • Para 7 dias
  • Temperatura da água
  • Mapa do tempo
  • Widgets de tempo
  • user-avatar
    Iniciar Sessão

    Previsão horária em Carryduff

    Hoje, 9 Dezembro, Segunda-feira

    Tempo Temperatura Precipitação Vento Pressão Humidade
    00:00 +5°C° 0.3 mm 12 m/s 742 mmHg 79%
    01:00 +5°C° 0.4 mm 13 m/s 743 mmHg 78%
    02:00 +5°C° 0.4 mm 14 m/s 744 mmHg 77%
    03:00 +6°C° 0.4 mm 15 m/s 744 mmHg 76%
    04:00 +5°C° 0.1 mm 14 m/s 747 mmHg 75%
    05:00 +5°C° 0.1 mm 13 m/s 749 mmHg 74%
    06:00 +5°C° 0.1 mm 12 m/s 751 mmHg 72%
    07:00 +4°C° 0 mm 11 m/s 753 mmHg 73%
    08:00 +4°C° 0 mm 11 m/s 755 mmHg 73%
    09:00 +5°C° 0 mm 10 m/s 757 mmHg 73%
    10:00 +5°C° 0 mm 9 m/s 758 mmHg 72%
    11:00 +6°C° 0 mm 9 m/s 760 mmHg 70%
    12:00 +6°C° 0 mm 8 m/s 761 mmHg 69%
    13:00 +6°C° 0 mm 7 m/s 762 mmHg 70%
    14:00 +5°C° 0 mm 6 m/s 762 mmHg 71%
    15:00 +6°C° 0 mm 5 m/s 763 mmHg 72%
    16:00 +5°C° 0 mm 5 m/s 764 mmHg 75%
    17:00 +4°C° 0 mm 4 m/s 765 mmHg 79%
    18:00 +3°C° 0 mm 3 m/s 766 mmHg 82%
    19:00 +3°C° 0 mm 3 m/s 766 mmHg 83%
    20:00 +4°C° 0 mm 2 m/s 766 mmHg 83%
    21:00 +4°C° 0 mm 2 m/s 766 mmHg 83%
    22:00 +3°C° 0 mm 3 m/s 766 mmHg 84%
    23:00 +3°C° 0 mm 3 m/s 766 mmHg 85%

    Amanhã, 10 Dezembro, Terça-feira

    Tempo Temperatura Precipitação Vento Pressão Humidade
    00:00 +3°C° 0 mm 4 m/s 766 mmHg 86%
    01:00 +2°C° 0 mm 5 m/s 765 mmHg 86%
    02:00 +3°C° 0 mm 5 m/s 764 mmHg 86%
    03:00 +3°C° 0 mm 6 m/s 764 mmHg 86%
    04:00 +4°C° 0 mm 7 m/s 763 mmHg 87%
    05:00 +5°C° 0 mm 7 m/s 761 mmHg 88%
    06:00 +5°C° 0 mm 8 m/s 760 mmHg 88%
    07:00 +6°C° 0.7 mm 9 m/s 759 mmHg 90%
    08:00 +6°C° 0.7 mm 10 m/s 758 mmHg 91%
    09:00 +7°C° 0.7 mm 11 m/s 757 mmHg 92%
    10:00 +8°C° 1.2 mm 11 m/s 756 mmHg 92%
    11:00 +8°C° 1.2 mm 12 m/s 755 mmHg 92%
    12:00 +9°C° 1.2 mm 13 m/s 754 mmHg 92%
    13:00 +9°C° 0.3 mm 13 m/s 752 mmHg 91%
    14:00 +10°C° 0.3 mm 13 m/s 751 mmHg 91%
    15:00 +10°C° 0.3 mm 13 m/s 750 mmHg 91%
    16:00 +9°C° 1.5 mm 12 m/s 750 mmHg 91%
    17:00 +7°C° 1.5 mm 12 m/s 751 mmHg 90%
    18:00 +6°C° 1.5 mm 11 m/s 751 mmHg 89%
    19:00 +5°C° 0.3 mm 10 m/s 752 mmHg 86%
    20:00 +5°C° 0.3 mm 8 m/s 753 mmHg 83%
    21:00 +5°C° 0.3 mm 7 m/s 753 mmHg 80%
    22:00 +4°C° 0 mm 6 m/s 754 mmHg 81%
    23:00 +5°C° 0 mm 5 m/s 754 mmHg 81%

    Depois de amanhã, 11 Dezembro, Quarta-feira

    Tempo Temperatura Precipitação Vento Pressão Humidade
    00:00 +3°C° 0 mm 5 m/s 754 mmHg 82%
    01:00 +3°C° 0 mm 5 m/s 754 mmHg 82%
    02:00 +4°C° 0 mm 4 m/s 754 mmHg 83%
    03:00 +4°C° 0 mm 4 m/s 754 mmHg 83%
    04:00 +4°C° 0.1 mm 4 m/s 753 mmHg 83%
    05:00 +3°C° 0.1 mm 5 m/s 753 mmHg 84%
    06:00 +3°C° 0.1 mm 5 m/s 753 mmHg 85%
    07:00 +3°C° 0.3 mm 5 m/s 752 mmHg 84%
    08:00 +4°C° 0.3 mm 6 m/s 751 mmHg 84%
    09:00 +4°C° 0.3 mm 6 m/s 751 mmHg 84%
    10:00 +3°C° 1.1 mm 7 m/s 750 mmHg 86%
    11:00 +2°C° 1.1 mm 8 m/s 750 mmHg 89%
    12:00 +2°C° 1.1 mm 8 m/s 749 mmHg 92%
    13:00 +2°C° 0.3 mm 8 m/s 749 mmHg 88%
    14:00 +2°C° 0.3 mm 8 m/s 748 mmHg 85%
    15:00 +3°C° 0.3 mm 7 m/s 748 mmHg 82%
    16:00 +2°C° 0 mm 7 m/s 749 mmHg 82%
    17:00 +2°C° 0 mm 6 m/s 749 mmHg 82%
    18:00 +1°C° 0 mm 6 m/s 750 mmHg 82%
    19:00 +1°C° 0 mm 6 m/s 751 mmHg 82%
    20:00 +1°C° 0 mm 6 m/s 751 mmHg 82%
    21:00 +1°C° 0 mm 6 m/s 752 mmHg 82%
    22:00 +1°C° 0 mm 6 m/s 752 mmHg 82%
    23:00 +1°C° 0 mm 6 m/s 752 mmHg 82%

    12 Dezembro, Quinta-feira

    Tempo Temperatura Precipitação Vento Pressão Humidade
    00:00 +1°C° 0 mm 6 m/s 752 mmHg 83%
    01:00 +1°C° 0 mm 6 m/s 752 mmHg 82%
    02:00 +1°C° 0 mm 5 m/s 751 mmHg 82%
    03:00 +1°C° 0 mm 5 m/s 751 mmHg 82%
    04:00 +2°C° 0.2 mm 6 m/s 750 mmHg 85%
    05:00 +3°C° 0.2 mm 7 m/s 748 mmHg 88%
    06:00 +2°C° 0.2 mm 8 m/s 747 mmHg 91%
    07:00 +3°C° 0.7 mm 9 m/s 745 mmHg 91%
    08:00 +5°C° 0.7 mm 10 m/s 743 mmHg 91%
    09:00 +6°C° 0.7 mm 11 m/s 741 mmHg 91%
    10:00 +7°C° 3.1 mm 12 m/s 739 mmHg 92%
    11:00 +7°C° 3.1 mm 13 m/s 736 mmHg 93%
    12:00 +8°C° 3.1 mm 14 m/s 734 mmHg 94%
    13:00 +8°C° 0.8 mm 14 m/s 733 mmHg 88%
    14:00 +8°C° 0.8 mm 14 m/s 732 mmHg 82%
    15:00 +8°C° 0.8 mm 14 m/s 731 mmHg 76%
    16:00 +5°C° 0.3 mm 15 m/s 732 mmHg 76%
    17:00 +4°C° 0.3 mm 15 m/s 732 mmHg 77%
    18:00 +1°C° 0.3 mm 16 m/s 732 mmHg 78%
    19:00 +1°C° 0.3 mm 15 m/s 732 mmHg 75%
    20:00 +1°C° 0.3 mm 15 m/s 732 mmHg 72%
    21:00 +1°C° 0.3 mm 15 m/s 732 mmHg 70%
    22:00 +1°C° 0.2 mm 15 m/s 732 mmHg 70%
    23:00 0°C° 0.2 mm 16 m/s 732 mmHg 71%

    13 Dezembro, Sexta-feira

    Tempo Temperatura Precipitação Vento Pressão Humidade
    00:00 0°C° 0.2 mm 16 m/s 732 mmHg 71%
    01:00 0°C° 0.1 mm 16 m/s 732 mmHg 70%
    02:00 0°C° 0.1 mm 16 m/s 733 mmHg 68%
    03:00 0°C° 0.1 mm 15 m/s 733 mmHg 67%
    04:00 0°C° 0 mm 15 m/s 733 mmHg 69%
    05:00 +1°C° 0 mm 15 m/s 734 mmHg 71%
    06:00 +1°C° 0 mm 15 m/s 735 mmHg 73%
    07:00 +1°C° 0 mm 15 m/s 736 mmHg 74%
    08:00 +1°C° 0 mm 15 m/s 737 mmHg 75%
    09:00 +1°C° 0 mm 15 m/s 738 mmHg 76%
    10:00 +2°C° 0 mm 15 m/s 738 mmHg 75%
    11:00 +3°C° 0 mm 14 m/s 739 mmHg 74%
    12:00 +3°C° 0 mm 14 m/s 740 mmHg 74%
    13:00 +3°C° 0 mm 13 m/s 740 mmHg 73%
    14:00 +3°C° 0 mm 12 m/s 740 mmHg 72%
    15:00 +3°C° 0 mm 10 m/s 741 mmHg 72%
    16:00 +3°C° 0 mm 9 m/s 741 mmHg 73%
    17:00 +4°C° 0 mm 8 m/s 741 mmHg 74%
    18:00 +3°C° 0 mm 7 m/s 741 mmHg 75%
    19:00 +4°C° 0 mm 7 m/s 741 mmHg 77%
    20:00 +4°C° 0 mm 7 m/s 741 mmHg 79%
    21:00 +4°C° 0 mm 7 m/s 741 mmHg 81%
    22:00 +4°C° 0.1 mm 7 m/s 741 mmHg 82%
    23:00 +4°C° 0.1 mm 7 m/s 742 mmHg 84%

    14 Dezembro, Sábado

    Tempo Temperatura Precipitação Vento Pressão Humidade
    00:00 +2°C° 0.1 mm 8 m/s 742 mmHg 85%
    01:00 +2°C° 0 mm 8 m/s 743 mmHg 82%
    02:00 +2°C° 0 mm 8 m/s 744 mmHg 79%
    03:00 +2°C° 0 mm 8 m/s 744 mmHg 77%
    04:00 +3°C° 0 mm 7 m/s 745 mmHg 78%
    05:00 +3°C° 0 mm 6 m/s 745 mmHg 79%
    06:00 +3°C° 0 mm 5 m/s 745 mmHg 81%
    07:00 +3°C° 0.3 mm 5 m/s 746 mmHg 84%
    08:00 +3°C° 0.3 mm 5 m/s 746 mmHg 87%
    09:00 +5°C° 0.3 mm 5 m/s 746 mmHg 91%
    10:00 +4°C° 0.1 mm 6 m/s 746 mmHg 86%
    11:00 +4°C° 0.1 mm 6 m/s 747 mmHg 82%
    12:00 +5°C° 0.1 mm 7 m/s 747 mmHg 77%
    13:00 +5°C° 0 mm 6 m/s 747 mmHg 78%
    14:00 +6°C° 0 mm 5 m/s 746 mmHg 80%
    15:00 +6°C° 0 mm 4 m/s 746 mmHg 81%
    16:00 +6°C° 0.8 mm 4 m/s 745 mmHg 86%
    17:00 +5°C° 0.8 mm 5 m/s 745 mmHg 91%
    18:00 +5°C° 0.8 mm 5 m/s 744 mmHg 96%
    19:00 +5°C° 0.3 mm 6 m/s 744 mmHg 93%
    20:00 +6°C° 0.3 mm 7 m/s 744 mmHg 89%
    21:00 +7°C° 0.3 mm 9 m/s 744 mmHg 86%
    22:00 +6°C° 0.1 mm 7 m/s 745 mmHg 87%
    23:00 +7°C° 0.1 mm 6 m/s 745 mmHg 87%
    Mostrar mais